CommID,deviceName,DataDateTime,GPSLatitude,GPSLongitude,Submerged,gpsQuality,BatteryVoltage,SST,IridiumLatitude,IridiumLongitude,IridiumRadiusKm,orgName,bPressTend,windDir,windSpeed,bPress,SurfaceSalinity,temperature7m,salinity7m,temperature15m,salinity15m
300234011889250,UAFSFOS-SVP-0012 ,1/8/2013 10:00:37 PM,73.355721,-170.154552,,3,11.8,-4.00,73.200960,-170.125460,6,UAF SFOS,,,,,,,,,
300234011889250,UAFSFOS-SVP-0012 ,1/8/2013 9:00:09 PM,73.357641,-170.150830,,3,11.8,-4.75,73.217740,-170.387000,4,UAF SFOS,,,,,,,,,
300234011889250,UAFSFOS-SVP-0012 ,1/8/2013 8:00:08 PM,73.359821,-170.147396,,3,11.8,-4.75,73.200960,-170.125460,2,UAF SFOS,,,,,,,,,
300234011889250,UAFSFOS-SVP-0012 ,1/8/2013 7:00:07 PM,73.362730,-170.143143,,3,11.8,-4.85,73.227150,-169.403640,476,UAF SFOS,,,,,,,,,
300234011889250,UAFSFOS-SVP-0012 ,1/8/2013 6:00:37 PM,73.365777,-170.138182,,3,11.8,-4.85,73.238040,-170.257200,7,UAF SFOS,,,,,,,,,
300234011889250,UAFSFOS-SVP-0012 ,1/8/2013 5:00:09 PM,73.368930,-170.133024,,3,11.8,-4.85,73.217740,-170.387000,5,UAF SFOS,,,,,,,,,
300234011889250,UAFSFOS-SVP-0012 ,1/8/2013 4:00:07 PM,73.372502,-170.127824,,3,11.8,-4.80,73.217740,-170.387000,3,UAF SFOS,,,,,,,,,
300234011889250,UAFSFOS-SVP-0012 ,1/8/2013 3:00:37 PM,73.376043,-170.122535,,3,11.8,-4.80,73.244180,-170.257200,5,UAF SFOS,,,,,,,,,
300234011889250,UAFSFOS-SVP-0012 ,1/8/2013 2:00:10 PM,73.379713,-170.116543,,3,11.8,-4.85,73.167260,-170.298050,100,UAF SFOS,,,,,,,,,
300234011889250,UAFSFOS-SVP-0012 ,1/8/2013 1:00:08 PM,73.383255,-170.110046,,3,11.8,-4.80,73.221270,-170.112680,7,UAF SFOS,,,,,,,,,
300234011889250,UAFSFOS-SVP-0012 ,1/8/2013 12:00:38 PM,73.386757,-170.103449,,3,11.8,-4.80,73.200960,-170.125460,4,UAF SFOS,,,,,,,,,
300234011889250,UAFSFOS-SVP-0012 ,1/8/2013 11:00:10 AM,73.390177,-170.097368,,3,11.8,-4.80,73.221270,-170.112680,2,UAF SFOS,,,,,,,,,
300234011889250,UAFSFOS-SVP-0012 ,1/8/2013 10:00:08 AM,73.393855,-170.090993,,3,11.8,-4.75,73.190170,-172.144270,140,UAF SFOS,,,,,,,,,
300234011889250,UAFSFOS-SVP-0012 ,1/8/2013 9:00:38 AM,73.397402,-170.084749,,3,11.8,-4.70,73.217740,-170.387000,4,UAF SFOS,,,,,,,,,
300234011889250,UAFSFOS-SVP-0012 ,1/8/2013 8:00:09 AM,73.401338,-170.078057,,3,11.8,-4.70,73.221270,-170.112680,2,UAF SFOS,,,,,,,,,
300234011889250,UAFSFOS-SVP-0012 ,1/8/2013 7:00:07 AM,73.405543,-170.070430,,3,11.8,-4.65,73.217740,-170.387000,2,UAF SFOS,,,,,,,,,
300234011889250,UAFSFOS-SVP-0012 ,1/8/2013 6:00:37 AM,73.410143,-170.061921,,3,11.8,-4.65,73.221270,-170.112680,3,UAF SFOS,,,,,,,,,
300234011889250,UAFSFOS-SVP-0012 ,1/8/2013 5:00:08 AM,73.414624,-170.053713,,3,11.8,-4.65,73.247720,-170.998600,8,UAF SFOS,,,,,,,,,
300234011889250,UAFSFOS-SVP-0012 ,1/8/2013 4:00:37 AM,73.418935,-170.046152,,3,11.8,-4.60,73.529220,-176.152760,214,UAF SFOS,,,,,,,,,
300234011889250,UAFSFOS-SVP-0012 ,1/8/2013 3:00:11 AM,73.423149,-170.038393,,3,11.8,-4.60,73.260880,-169.538440,2,UAF SFOS,,,,,,,,,
300234011889250,UAFSFOS-SVP-0012 ,1/8/2013 2:00:08 AM,73.427241,-170.030143,,3,11.8,-4.55,73.260880,-169.538440,3,UAF SFOS,,,,,,,,,
300234011889250,UAFSFOS-SVP-0012 ,1/8/2013 1:00:37 AM,73.431185,-170.021227,,3,11.8,-4.55,73.126780,-163.387280,216,UAF SFOS,,,,,,,,,
300234011889250,UAFSFOS-SVP-0012 ,1/8/2013 12:00:11 AM,73.435249,-170.010291,,3,11.8,-4.50,73.244180,-170.257200,3,UAF SFOS,,,,,,,,,
300234011889250,UAFSFOS-SVP-0012 ,1/7/2013 11:00:07 PM,73.439071,-169.998282,,3,11.8,-4.50,73.244180,-170.257200,3,UAF SFOS,,,,,,,,,
300234011889250,UAFSFOS-SVP-0012 ,1/7/2013 10:00:38 PM,73.442732,-169.984043,,3,11.8,-4.50,73.268030,-170.869700,2,UAF SFOS,,,,,,,,,
300234011889250,UAFSFOS-SVP-0012 ,1/7/2013 9:00:08 PM,73.446341,-169.967435,,3,11.8,-4.50,73.264480,-170.126800,2,UAF SFOS,,,,,,,,,
300234011889250,UAFSFOS-SVP-0012 ,1/7/2013 8:00:07 PM,73.450196,-169.949260,,3,11.8,-4.50,73.264480,-170.126800,1,UAF SFOS,,,,,,,,,
300234011889250,UAFSFOS-SVP-0012 ,1/7/2013 7:00:08 PM,73.454271,-169.930130,,3,11.8,-4.50,73.264480,-170.126800,6,UAF SFOS,,,,,,,,,
300234011889250,UAFSFOS-SVP-0012 ,1/7/2013 6:00:38 PM,73.458288,-169.910852,,3,11.8,-4.50,73.257250,-169.464260,2,UAF SFOS,,,,,,,,,
300234011889250,UAFSFOS-SVP-0012 ,1/7/2013 5:00:10 PM,73.462916,-169.890380,,3,11.8,-4.50,73.260880,-169.538440,3,UAF SFOS,,,,,,,,,
300234011889250,UAFSFOS-SVP-0012 ,1/7/2013 4:00:07 PM,73.467332,-169.871149,,3,11.8,-4.50,73.277530,-169.450860,2,UAF SFOS,,,,,,,,,
300234011889250,UAFSFOS-SVP-0012 ,1/7/2013 3:00:37 PM,73.471827,-169.851902,,3,11.8,-4.50,73.297820,-169.437390,3,UAF SFOS,,,,,,,,,
300234011889250,UAFSFOS-SVP-0012 ,1/7/2013 2:00:08 PM,73.476066,-169.834127,,3,11.8,-4.50,73.277530,-169.450860,69,UAF SFOS,,,,,,,,,
300234011889250,UAFSFOS-SVP-0012 ,1/7/2013 1:00:09 PM,73.479360,-169.820952,,3,11.8,-4.50,73.273840,-169.376580,16,UAF SFOS,,,,,,,,,
300234011889250,UAFSFOS-SVP-0012 ,1/7/2013 12:00:37 PM,73.482718,-169.807116,,3,11.8,-4.50,73.277530,-169.450860,2,UAF SFOS,,,,,,,,,
300234011889250,UAFSFOS-SVP-0012 ,1/7/2013 11:00:08 AM,73.486291,-169.794227,,3,11.8,-4.55,73.297820,-169.437390,6,UAF SFOS,,,,,,,,,
300234011889250,UAFSFOS-SVP-0012 ,1/7/2013 10:00:07 AM,73.489780,-169.781682,,3,11.8,-4.55,73.281180,-169.525190,2,UAF SFOS,,,,,,,,,
300234011889250,UAFSFOS-SVP-0012 ,1/7/2013 9:00:37 AM,73.493138,-169.769627,,3,11.8,-4.55,73.277530,-169.450860,2,UAF SFOS,,,,,,,,,
300234011889250,UAFSFOS-SVP-0012 ,1/7/2013 8:00:07 AM,73.496585,-169.757652,,3,11.8,-4.55,73.277530,-169.450860,3,UAF SFOS,,,,,,,,,
300234011889250,UAFSFOS-SVP-0012 ,1/7/2013 7:00:08 AM,73.500071,-169.745005,,3,11.8,-4.60,73.277530,-169.450860,2,UAF SFOS,,,,,,,,,
300234011889250,UAFSFOS-SVP-0012 ,1/7/2013 6:00:37 AM,73.503607,-169.732463,,3,11.8,-4.60,73.297820,-169.437390,2,UAF SFOS,,,,,,,,,
300234011889250,UAFSFOS-SVP-0012 ,1/7/2013 5:00:08 AM,73.507468,-169.719530,,3,11.8,-4.60,73.294120,-169.362960,2,UAF SFOS,,,,,,,,,
300234011889250,UAFSFOS-SVP-0012 ,1/7/2013 4:00:07 AM,73.511343,-169.706424,,3,11.8,-4.65,73.497790,-174.196690,164,UAF SFOS,,,,,,,,,
300234011889250,UAFSFOS-SVP-0012 ,1/7/2013 3:00:38 AM,73.515274,-169.693210,,3,11.8,-4.65,73.297820,-169.437390,3,UAF SFOS,,,,,,,,,
300234011889250,UAFSFOS-SVP-0012 ,1/7/2013 2:00:09 AM,73.518880,-169.680224,,3,11.8,-4.65,73.297820,-169.437390,2,UAF SFOS,,,,,,,,,
300234011889250,UAFSFOS-SVP-0012 ,1/7/2013 1:00:08 AM,73.521946,-169.666882,,3,11.8,-4.70,73.294120,-169.362960,2,UAF SFOS,,,,,,,,,
300234011889250,UAFSFOS-SVP-0012 ,1/7/2013 12:00:38 AM,73.524593,-169.653410,,3,11.8,-4.70,73.344500,-169.410290,7,UAF SFOS,,,,,,,,,
300234011889250,UAFSFOS-SVP-0012 ,1/6/2013 11:00:07 PM,73.526888,-169.638677,,3,11.8,-4.70,73.294120,-169.362960,4,UAF SFOS,,,,,,,,,
300234011889250,UAFSFOS-SVP-0012 ,1/6/2013 10:00:37 PM,73.529049,-169.623191,,3,11.8,-4.75,73.294120,-169.362960,4,UAF SFOS,,,,,,,,,
300234011889250,UAFSFOS-SVP-0012 ,1/6/2013 9:00:20 PM,73.531105,-169.606088,,3,11.8,-4.75,73.183520,-164.433790,171,UAF SFOS,,,,,,,,,
300234011889250,UAFSFOS-SVP-0012 ,1/6/2013 8:00:07 PM,73.533427,-169.585944,,3,11.8,-4.80,73.316760,-169.274750,3,UAF SFOS,,,,,,,,,
300234011889250,UAFSFOS-SVP-0012 ,1/6/2013 7:00:09 PM,73.535749,-169.564438,,3,11.8,-4.80,73.316760,-169.274750,3,UAF SFOS,,,,,,,,,
300234011889250,UAFSFOS-SVP-0012 ,1/6/2013 6:00:37 PM,73.538155,-169.542171,,3,11.8,-4.85,73.340790,-169.335540,3,UAF SFOS,,,,,,,,,
300234011889250,UAFSFOS-SVP-0012 ,1/6/2013 5:00:13 PM,73.540399,-169.518630,,3,11.8,-4.85,73.316760,-169.274750,2,UAF SFOS,,,,,,,,,
300234011889250,UAFSFOS-SVP-0012 ,1/6/2013 4:00:08 PM,73.542396,-169.494969,,3,11.8,-4.90,73.320510,-169.349280,2,UAF SFOS,,,,,,,,,
300234011889250,UAFSFOS-SVP-0012 ,1/6/2013 3:00:38 PM,73.544038,-169.471149,,3,11.8,-4.90,73.320510,-169.349280,3,UAF SFOS,,,,,,,,,
300234011889250,UAFSFOS-SVP-0012 ,1/6/2013 2:00:09 PM,73.545274,-169.446049,,3,11.8,-4.90,73.306860,-169.200280,2,UAF SFOS,,,,,,,,,
300234011889250,UAFSFOS-SVP-0012 ,1/6/2013 1:00:08 PM,73.546124,-169.419227,,3,11.8,-4.95,73.357300,-169.246900,5,UAF SFOS,,,,,,,,,
300234011889250,UAFSFOS-SVP-0012 ,1/6/2013 12:00:38 PM,73.546638,-169.392080,,3,11.8,-4.95,73.337030,-169.260860,5,UAF SFOS,,,,,,,,,
300234011889250,UAFSFOS-SVP-0012 ,1/6/2013 11:00:08 AM,73.546982,-169.363680,,3,11.8,-5.00,73.316760,-169.274750,3,UAF SFOS,,,,,,,,,
300234011889250,UAFSFOS-SVP-0012 ,1/6/2013 10:00:07 AM,73.547241,-169.334488,,3,11.8,-5.00,73.268050,-170.545830,83,UAF SFOS,,,,,,,,,
300234011889250,UAFSFOS-SVP-0012 ,1/6/2013 9:00:37 AM,73.547366,-169.304791,,3,11.8,-5.00,73.329380,-169.111670,2,UAF SFOS,,,,,,,,,
300234011889250,UAFSFOS-SVP-0012 ,1/6/2013 8:00:09 AM,73.547338,-169.273980,,3,11.8,-5.00,73.309120,-169.125870,3,UAF SFOS,,,,,,,,,
300234011889250,UAFSFOS-SVP-0012 ,1/6/2013 7:00:14 AM,73.546907,-169.243138,,3,11.8,-5.00,73.303020,-169.125870,2,UAF SFOS,,,,,,,,,
300234011889250,UAFSFOS-SVP-0012 ,1/6/2013 6:00:37 AM,73.546677,-169.211774,,3,11.8,-5.00,73.345730,-169.227400,4,UAF SFOS,,,,,,,,,
300234011889250,UAFSFOS-SVP-0012 ,1/6/2013 5:00:08 AM,73.546041,-169.179330,,3,11.8,-5.00,73.299140,-169.515300,2,UAF SFOS,,,,,,,,,
300234011889250,UAFSFOS-SVP-0012 ,1/6/2013 4:00:08 AM,73.545116,-169.146355,,3,11.8,46.15,73.325490,-169.371700,2,UAF SFOS,,,,,,,,,
300234011889250,UAFSFOS-SVP-0012 ,1/6/2013 3:00:37 AM,73.544060,-169.114460,,3,11.8,46.15,73.325490,-169.371700,2,UAF SFOS,,,,,,,,,
300234011889250,UAFSFOS-SVP-0012 ,1/6/2013 2:00:08 AM,73.542849,-169.082949,,3,11.8,46.15,73.573320,-174.483340,196,UAF SFOS,,,,,,,,,
300234011889250,UAFSFOS-SVP-0012 ,1/6/2013 1:00:09 AM,73.541310,-169.052347,,3,11.8,46.10,73.329380,-169.111670,2,UAF SFOS,,,,,,,,,
300234011889250,UAFSFOS-SVP-0012 ,1/6/2013 12:00:37 AM,73.539449,-169.023002,,3,11.8,46.10,73.299140,-169.515300,4,UAF SFOS,,,,,,,,,
300234011889250,UAFSFOS-SVP-0012 ,1/5/2013 11:00:07 PM,73.537430,-168.993458,,3,11.8,46.10,73.325490,-169.371700,3,UAF SFOS,,,,,,,,,
300234011889250,UAFSFOS-SVP-0012 ,1/5/2013 10:00:08 PM,73.535032,-168.964008,,3,11.8,46.10,73.321550,-168.562730,4,UAF SFOS,,,,,,,,,
300234011889250,UAFSFOS-SVP-0012 ,1/5/2013 9:00:38 PM,73.532432,-168.934538,,3,11.8,46.10,73.317570,-168.488350,3,UAF SFOS,,,,,,,,,
300234011889250,UAFSFOS-SVP-0012 ,1/5/2013 8:00:08 PM,73.529699,-168.903758,,3,11.8,46.10,73.315450,-168.562730,2,UAF SFOS,,,,,,,,,
300234011889250,UAFSFOS-SVP-0012 ,1/5/2013 7:00:08 PM,73.526905,-168.872960,,3,11.8,46.10,73.267550,-165.230640,136,UAF SFOS,,,,,,,,,
300234011889250,UAFSFOS-SVP-0012 ,1/5/2013 6:00:37 PM,73.524099,-168.841863,,3,11.8,46.10,73.337800,-168.473620,8,UAF SFOS,,,,,,,,,
300234011889250,UAFSFOS-SVP-0012 ,1/5/2013 5:00:09 PM,73.521266,-168.810144,,3,11.8,46.10,73.333770,-168.399150,5,UAF SFOS,,,,,,,,,
300234011889250,UAFSFOS-SVP-0012 ,1/5/2013 4:00:07 PM,73.518432,-168.778916,,3,11.8,46.05,73.287230,-168.428860,3,UAF SFOS,,,,,,,,,
300234011889250,UAFSFOS-SVP-0012 ,1/5/2013 3:00:37 PM,73.515593,-168.748149,,3,11.8,46.05,73.313550,-168.414040,6,UAF SFOS,,,,,,,,,
300234011889250,UAFSFOS-SVP-0012 ,1/5/2013 2:00:09 PM,73.512546,-168.717372,,3,11.8,46.05,73.307450,-168.414040,3,UAF SFOS,,,,,,,,,
300234011889250,UAFSFOS-SVP-0012 ,1/5/2013 1:00:07 PM,73.509427,-168.687349,,3,11.8,46.00,73.287230,-168.428860,8,UAF SFOS,,,,,,,,,
300234011889250,UAFSFOS-SVP-0012 ,1/5/2013 12:00:37 PM,73.506180,-168.657894,,3,11.8,45.95,73.287230,-168.428860,4,UAF SFOS,,,,,,,,,
300234011889250,UAFSFOS-SVP-0012 ,1/5/2013 11:00:08 AM,73.502752,-168.628255,,3,11.8,45.90,73.287230,-168.428860,2,UAF SFOS,,,,,,,,,
300234011889250,UAFSFOS-SVP-0012 ,1/5/2013 10:00:08 AM,73.499199,-168.598958,,3,11.8,45.90,73.283170,-168.354760,3,UAF SFOS,,,,,,,,,
300234011889250,UAFSFOS-SVP-0012 ,1/5/2013 9:00:38 AM,73.495546,-168.569922,,3,11.8,45.85,73.299270,-168.265600,3,UAF SFOS,,,,,,,,,
300234011889250,UAFSFOS-SVP-0012 ,1/5/2013 8:00:08 AM,73.491863,-168.539455,,3,11.8,45.80,73.283170,-168.354760,2,UAF SFOS,,,,,,,,,
300234011889250,UAFSFOS-SVP-0012 ,1/5/2013 7:00:08 AM,73.488177,-168.507813,,3,11.8,45.70,73.279070,-168.280730,2,UAF SFOS,,,,,,,,,
300234011889250,UAFSFOS-SVP-0012 ,1/5/2013 6:00:38 AM,73.484605,-168.476669,,3,11.8,45.65,73.207770,-172.598200,139,UAF SFOS,,,,,,,,,
300234011889250,UAFSFOS-SVP-0012 ,1/5/2013 5:00:09 AM,73.480774,-168.444752,,3,11.8,45.60,73.283170,-168.354760,10,UAF SFOS,,,,,,,,,
300234011889250,UAFSFOS-SVP-0012 ,1/5/2013 4:00:09 AM,73.476957,-168.413536,,3,11.8,45.50,73.436010,-172.106350,141,UAF SFOS,,,,,,,,,
300234011889250,UAFSFOS-SVP-0012 ,1/5/2013 3:00:37 AM,73.473363,-168.382630,,3,11.8,45.40,73.274930,-168.206770,2,UAF SFOS,,,,,,,,,
300234011889250,UAFSFOS-SVP-0012 ,1/5/2013 2:00:09 AM,73.470093,-168.351652,,3,11.8,45.30,73.290920,-168.117430,3,UAF SFOS,,,,,,,,,
300234011889250,UAFSFOS-SVP-0012 ,1/5/2013 1:00:07 AM,73.466849,-168.322777,,3,11.8,45.15,73.295120,-168.191480,5,UAF SFOS,,,,,,,,,
300234011889250,UAFSFOS-SVP-0012 ,1/5/2013 12:00:37 AM,73.463446,-168.295702,,3,11.8,45.05,73.274930,-168.206770,3,UAF SFOS,,,,,,,,,
300234011889250,UAFSFOS-SVP-0012 ,1/4/2013 11:00:08 PM,73.459757,-168.267186,,3,11.8,44.90,73.290920,-168.117430,5,UAF SFOS,,,,,,,,,
300234011889250,UAFSFOS-SVP-0012 ,1/4/2013 10:00:08 PM,73.455791,-168.236952,,3,11.8,44.80,73.290920,-168.117430,6,UAF SFOS,,,,,,,,,
300234011889250,UAFSFOS-SVP-0012 ,1/4/2013 9:00:37 PM,73.450885,-168.206122,,3,11.8,44.70,73.270740,-168.132870,2,UAF SFOS,,,,,,,,,
300234011889250,UAFSFOS-SVP-0012 ,1/4/2013 8:00:08 PM,73.446202,-168.175211,,3,11.8,44.80,73.270740,-168.132870,1,UAF SFOS,,,,,,,,,
300234011889250,UAFSFOS-SVP-0012 ,1/4/2013 7:00:08 PM,73.441588,-168.144497,,3,11.8,43.75,73.246350,-168.745500,3,UAF SFOS,,,,,,,,,
300234011889250,UAFSFOS-SVP-0012 ,1/4/2013 6:00:38 PM,73.437174,-168.113402,,3,11.8,43.55,74.228180,-178.560490,356,UAF SFOS,,,,,,,,,
300234011889250,UAFSFOS-SVP-0012 ,1/4/2013 5:00:19 PM,73.432966,-168.080619,,3,11.8,43.30,73.242080,-168.940000,3,UAF SFOS,,,,,,,,,
300234011889250,UAFSFOS-SVP-0012 ,1/4/2013 4:00:08 PM,73.428882,-168.048191,,3,11.8,43.05,73.262240,-167.585260,2,UAF SFOS,,,,,,,,,
300234011889250,UAFSFOS-SVP-0012 ,1/4/2013 3:00:38 PM,73.425255,-168.020977,,3,11.8,43.10,73.257920,-167.511560,3,UAF SFOS,,,,,,,,,
300234011889250,UAFSFOS-SVP-0012 ,1/4/2013 2:00:08 PM,73.422366,-167.990016,,3,11.8,43.05,73.349020,-165.393820,105,UAF SFOS,,,,,,,,,
300234011889250,UAFSFOS-SVP-0012 ,1/4/2013 1:00:09 PM,73.420007,-167.960669,,3,11.8,43.00,73.237780,-167.527390,13,UAF SFOS,,,,,,,,,
300234011889250,UAFSFOS-SVP-0012 ,1/4/2013 12:00:37 PM,73.417510,-167.937039,,3,11.8,42.90,73.237780,-167.527390,2,UAF SFOS,,,,,,,,,
300234011889250,UAFSFOS-SVP-0012 ,1/4/2013 11:00:07 AM,73.415318,-167.914500,,3,11.8,42.85,73.257920,-167.511560,7,UAF SFOS,,,,,,,,,
300234011889250,UAFSFOS-SVP-0012 ,1/4/2013 10:00:08 AM,73.412893,-167.894216,,3,11.8,42.80,73.257920,-167.511560,5,UAF SFOS,,,,,,,,,
300234011889250,UAFSFOS-SVP-0012 ,1/4/2013 9:00:37 AM,73.410452,-167.876144,,3,11.8,42.75,73.231630,-167.527390,2,UAF SFOS,,,,,,,,,
300234011889250,UAFSFOS-SVP-0012 ,1/4/2013 8:00:08 AM,73.407818,-167.854744,,3,11.8,42.70,73.231630,-167.527390,3,UAF SFOS,,,,,,,,,
300234011889250,UAFSFOS-SVP-0012 ,1/4/2013 7:00:08 AM,73.405385,-167.831527,,3,11.8,42.65,73.231630,-167.527390,2,UAF SFOS,,,,,,,,,
300234011889250,UAFSFOS-SVP-0012 ,1/4/2013 6:00:36 AM,73.402838,-167.807558,,3,11.8,42.60,73.231630,-167.527390,2,UAF SFOS,,,,,,,,,
300234011889250,UAFSFOS-SVP-0012 ,1/4/2013 5:00:37 AM,73.401002,-167.786416,,3,11.8,42.55,73.227280,-167.453900,3,UAF SFOS,,,,,,,,,
300234011889250,UAFSFOS-SVP-0012 ,1/4/2013 4:00:08 AM,73.399449,-167.767386,,3,11.8,42.50,73.342080,-170.197680,111,UAF SFOS,,,,,,,,,
300234011889250,UAFSFOS-SVP-0012 ,1/4/2013 3:00:07 AM,73.397930,-167.750950,,3,11.8,42.50,73.227280,-167.453900,3,UAF SFOS,,,,,,,,,
300234011889250,UAFSFOS-SVP-0012 ,1/4/2013 2:00:37 AM,73.396685,-167.738500,,3,11.8,42.45,73.227280,-167.453900,3,UAF SFOS,,,,,,,,,
300234011889250,UAFSFOS-SVP-0012 ,1/4/2013 1:00:09 AM,73.395285,-167.730394,,3,11.8,42.45,73.222890,-167.380490,2,UAF SFOS,,,,,,,,,
300234011889250,UAFSFOS-SVP-0012 ,1/4/2013 12:00:08 AM,73.394421,-167.719883,,3,11.8,42.40,73.222890,-167.380490,3,UAF SFOS,,,,,,,,,
300234011889250,UAFSFOS-SVP-0012 ,1/3/2013 11:00:37 PM,73.392946,-167.715128,,3,11.8,42.40,73.222890,-167.380490,4,UAF SFOS,,,,,,,,,
300234011889250,UAFSFOS-SVP-0012 ,1/3/2013 10:00:08 PM,73.391399,-167.710164,,3,11.8,42.40,73.222890,-167.380490,2,UAF SFOS,,,,,,,,,
300234011889250,UAFSFOS-SVP-0012 ,1/3/2013 9:00:36 PM,73.389882,-167.705544,,3,11.8,42.40,73.669100,-160.377050,239,UAF SFOS,,,,,,,,,
300234011889250,UAFSFOS-SVP-0012 ,1/3/2013 8:00:08 PM,73.388510,-167.702441,,3,11.8,42.35,74.569600,-176.357060,296,UAF SFOS,,,,,,,,,
300234011889250,UAFSFOS-SVP-0012 ,1/3/2013 7:00:07 PM,73.387335,-167.699253,,3,11.8,42.40,73.222890,-167.380490,3,UAF SFOS,,,,,,,,,
300234011889250,UAFSFOS-SVP-0012 ,1/3/2013 6:00:38 PM,73.385871,-167.695114,,3,11.8,42.40,73.253570,-167.437930,3,UAF SFOS,,,,,,,,,
300234011889250,UAFSFOS-SVP-0012 ,1/3/2013 5:00:20 PM,73.384607,-167.691086,,3,11.8,42.40,73.222890,-167.380490,2,UAF SFOS,,,,,,,,,
300234011889250,UAFSFOS-SVP-0012 ,1/3/2013 4:00:08 PM,73.383752,-167.688275,,3,11.8,42.40,73.222890,-167.380490,3,UAF SFOS,,,,,,,,,
300234011889250,UAFSFOS-SVP-0012 ,1/3/2013 3:00:37 PM,73.383524,-167.687700,,3,11.8,42.40,73.227280,-167.453900,3,UAF SFOS,,,,,,,,,
300234011889250,UAFSFOS-SVP-0012 ,1/3/2013 2:00:07 PM,73.384032,-167.685714,,3,11.8,42.45,73.222890,-167.380490,2,UAF SFOS,,,,,,,,,
300234011889250,UAFSFOS-SVP-0012 ,1/3/2013 1:00:08 PM,73.385043,-167.684597,,3,11.8,42.45,73.249170,-167.364370,6,UAF SFOS,,,,,,,,,
300234011889250,UAFSFOS-SVP-0012 ,1/3/2013 12:00:37 PM,73.386632,-167.683414,,3,11.8,42.45,73.215780,-168.165400,24,UAF SFOS,,,,,,,,,
300234011889250,UAFSFOS-SVP-0012 ,1/3/2013 11:00:09 AM,73.388427,-167.681383,,3,11.8,42.45,73.227280,-167.453900,3,UAF SFOS,,,,,,,,,
300234011889250,UAFSFOS-SVP-0012 ,1/3/2013 10:00:08 AM,73.390416,-167.679986,,3,11.8,42.50,73.277330,-166.399480,74,UAF SFOS,,,,,,,,,
300234011889250,UAFSFOS-SVP-0012 ,1/3/2013 9:00:38 AM,73.392341,-167.679139,,3,11.8,42.50,73.249170,-167.364370,2,UAF SFOS,,,,,,,,,
300234011889250,UAFSFOS-SVP-0012 ,1/3/2013 8:00:08 AM,73.394291,-167.677753,,3,11.8,42.50,73.222890,-167.380490,3,UAF SFOS,,,,,,,,,
300234011889250,UAFSFOS-SVP-0012 ,1/3/2013 7:00:08 AM,73.396330,-167.675703,,3,11.8,42.50,73.222890,-167.380490,2,UAF SFOS,,,,,,,,,
300234011889250,UAFSFOS-SVP-0012 ,1/3/2013 6:00:37 AM,73.398388,-167.672783,,3,11.8,42.50,73.249170,-167.364370,4,UAF SFOS,,,,,,,,,
300234011889250,UAFSFOS-SVP-0012 ,1/3/2013 5:00:37 AM,73.400780,-167.669425,,3,11.8,42.55,73.222890,-167.380490,3,UAF SFOS,,,,,,,,,
300234011889250,UAFSFOS-SVP-0012 ,1/3/2013 4:00:08 AM,73.403630,-167.664055,,3,11.8,42.55,73.222890,-167.380490,2,UAF SFOS,,,,,,,,,
300234011889250,UAFSFOS-SVP-0012 ,1/3/2013 3:00:08 AM,73.406696,-167.658203,,3,11.8,42.55,73.244720,-167.290870,2,UAF SFOS,,,,,,,,,
300234011889250,UAFSFOS-SVP-0012 ,1/3/2013 2:00:37 AM,73.410027,-167.649514,,3,11.8,42.60,73.355590,-170.497740,123,UAF SFOS,,,,,,,,,
300234011889250,UAFSFOS-SVP-0012 ,1/3/2013 1:00:09 AM,73.413713,-167.640425,,3,11.8,42.60,73.253570,-167.437930,2,UAF SFOS,,,,,,,,,
300234011889250,UAFSFOS-SVP-0012 ,1/3/2013 12:00:07 AM,73.417141,-167.631641,,3,11.8,42.60,73.253570,-167.437930,2,UAF SFOS,,,,,,,,,
300234011889250,UAFSFOS-SVP-0012 ,1/2/2013 11:00:08 PM,73.420585,-167.621214,,3,11.8,42.65,73.249170,-167.364370,3,UAF SFOS,,,,,,,,,
300234011889250,UAFSFOS-SVP-0012 ,1/2/2013 10:00:38 PM,73.423996,-167.610964,,3,11.8,42.65,73.249170,-167.364370,5,UAF SFOS,,,,,,,,,
300234011889250,UAFSFOS-SVP-0012 ,1/2/2013 9:00:11 PM,73.427446,-167.599569,,3,11.8,42.65,73.269290,-167.348180,4,UAF SFOS,,,,,,,,,
300234011889250,UAFSFOS-SVP-0012 ,1/2/2013 8:00:09 PM,73.430657,-167.587830,,3,11.8,42.65,73.253570,-167.437930,3,UAF SFOS,,,,,,,,,
300234011889250,UAFSFOS-SVP-0012 ,1/2/2013 7:00:07 PM,73.434130,-167.574186,,3,11.8,42.70,73.289430,-167.331910,14,UAF SFOS,,,,,,,,,
300234011889250,UAFSFOS-SVP-0012 ,1/2/2013 6:00:37 PM,73.437418,-167.558297,,3,11.8,42.70,73.264840,-167.274530,3,UAF SFOS,,,,,,,,,
300234011889250,UAFSFOS-SVP-0012 ,1/2/2013 5:00:08 PM,73.440441,-167.545875,,3,11.8,42.70,73.284960,-167.258120,5,UAF SFOS,,,,,,,,,
300234011889250,UAFSFOS-SVP-0012 ,1/2/2013 4:00:08 PM,73.443513,-167.533103,,3,11.8,42.70,73.264840,-167.274530,2,UAF SFOS,,,,,,,,,
300234011889250,UAFSFOS-SVP-0012 ,1/2/2013 3:00:37 PM,73.446524,-167.520361,,3,11.8,42.70,73.284960,-167.258120,7,UAF SFOS,,,,,,,,,
300234011889250,UAFSFOS-SVP-0012 ,1/2/2013 2:00:09 PM,73.449613,-167.507666,,3,11.8,42.70,73.244720,-167.290870,20,UAF SFOS,,,,,,,,,
300234011889250,UAFSFOS-SVP-0012 ,1/2/2013 1:00:08 PM,73.452938,-167.496380,,3,11.8,42.65,73.249170,-167.364370,10,UAF SFOS,,,,,,,,,
300234011889250,UAFSFOS-SVP-0012 ,1/2/2013 12:00:38 PM,73.456266,-167.486044,,3,11.8,42.65,73.264840,-167.274530,4,UAF SFOS,,,,,,,,,
300234011889250,UAFSFOS-SVP-0012 ,1/2/2013 11:00:08 AM,73.459593,-167.476203,,3,11.8,42.60,73.269290,-167.348180,3,UAF SFOS,,,,,,,,,
300234011889250,UAFSFOS-SVP-0012 ,1/2/2013 10:00:09 AM,73.462607,-167.467500,,3,11.8,42.60,73.260340,-167.200960,2,UAF SFOS,,,,,,,,,
300234011889250,UAFSFOS-SVP-0012 ,1/2/2013 9:00:37 AM,73.465441,-167.459855,,3,11.8,42.60,73.280450,-167.184400,2,UAF SFOS,,,,,,,,,
300234011889250,UAFSFOS-SVP-0012 ,1/2/2013 8:00:08 AM,73.468118,-167.452303,,3,11.8,42.55,73.264840,-167.274530,2,UAF SFOS,,,,,,,,,
300234011889250,UAFSFOS-SVP-0012 ,1/2/2013 7:00:08 AM,73.470441,-167.445625,,3,11.8,42.55,73.264840,-167.274530,2,UAF SFOS,,,,,,,,,
300234011889250,UAFSFOS-SVP-0012 ,1/2/2013 6:00:37 AM,73.472935,-167.438422,,3,11.8,42.50,73.282400,-167.569520,470,UAF SFOS,,,,,,,,,
300234011889250,UAFSFOS-SVP-0012 ,1/2/2013 5:00:16 AM,73.475421,-167.429950,,3,11.8,42.50,73.280450,-167.184400,2,UAF SFOS,,,,,,,,,
300234011889250,UAFSFOS-SVP-0012 ,1/2/2013 4:00:07 AM,73.478338,-167.421905,,3,11.8,42.45,73.311110,-168.101930,75,UAF SFOS,,,,,,,,,
300234011889250,UAFSFOS-SVP-0012 ,1/2/2013 3:00:07 AM,73.481255,-167.413305,,3,11.8,42.45,73.300570,-167.167760,2,UAF SFOS,,,,,,,,,
300234011889250,UAFSFOS-SVP-0012 ,1/2/2013 2:00:38 AM,73.484243,-167.405072,,3,11.8,42.45,73.280450,-167.184400,2,UAF SFOS,,,,,,,,,
300234011889250,UAFSFOS-SVP-0012 ,1/2/2013 1:00:10 AM,73.487505,-167.396700,,3,11.8,42.45,73.309560,-167.315580,4,UAF SFOS,,,,,,,,,
300234011889250,UAFSFOS-SVP-0012 ,1/2/2013 12:00:08 AM,73.490730,-167.388514,,3,11.8,42.40,73.284960,-167.258120,3,UAF SFOS,,,,,,,,,
300234011889250,UAFSFOS-SVP-0012 ,1/1/2013 11:00:09 PM,73.493893,-167.380089,,3,11.8,42.40,73.300570,-167.167760,5,UAF SFOS,,,,,,,,,
300234011889250,UAFSFOS-SVP-0012 ,1/1/2013 10:00:37 PM,73.496627,-167.371947,,3,11.8,42.40,73.284960,-167.258120,3,UAF SFOS,,,,,,,,,
300234011889250,UAFSFOS-SVP-0012 ,1/1/2013 9:00:11 PM,73.499216,-167.364330,,3,11.8,42.40,73.284960,-167.258120,2,UAF SFOS,,,,,,,,,
300234011889250,UAFSFOS-SVP-0012 ,1/1/2013 8:00:08 PM,73.501230,-167.356453,,3,11.8,42.40,73.305090,-167.241640,1,UAF SFOS,,,,,,,,,
300234011889250,UAFSFOS-SVP-0012 ,1/1/2013 7:00:08 PM,73.503013,-167.348439,,3,11.8,42.40,73.300570,-167.167760,3,UAF SFOS,,,,,,,,,
300234011889250,UAFSFOS-SVP-0012 ,1/1/2013 6:00:38 PM,73.504496,-167.339011,,3,11.8,42.40,74.635100,-174.533110,253,UAF SFOS,,,,,,,,,
300234011889250,UAFSFOS-SVP-0012 ,1/1/2013 5:00:09 PM,73.505907,-167.328492,,3,11.8,42.40,73.280450,-167.184400,3,UAF SFOS,,,,,,,,,
300234011889250,UAFSFOS-SVP-0012 ,1/1/2013 4:00:08 PM,73.507185,-167.316772,,3,11.8,42.45,73.300570,-167.167760,2,UAF SFOS,,,,,,,,,
300234011889250,UAFSFOS-SVP-0012 ,1/1/2013 3:00:09 PM,73.508621,-167.303814,,3,11.8,42.45,73.300570,-167.167760,2,UAF SFOS,,,,,,,,,
300234011889250,UAFSFOS-SVP-0012 ,1/1/2013 2:00:37 PM,73.510302,-167.290758,,3,11.8,42.45,73.561140,-161.412740,194,UAF SFOS,,,,,,,,,